{"data":{"norad_id":60051,"epoch":"2026-09-10T08:42:08.105184Z","epoch_age_seconds":1053513,"freshness":"AGED","line1":"1 60051U 24112P   26253.36259381  .09088332  11746-4  38920-2 0  9997","line2":"2 60051  53.1513 291.3360 0008887 174.8651 185.2482 16.21937946126994","mean_motion":16.21937946,"eccentricity":0.0008887,"inclination_deg":53.1513,"raan_deg":291.336,"arg_perigee_deg":174.8651,"mean_anomaly_deg":185.2482,"bstar":0.003892,"rev_number":12699,"period_min":88.782681455311,"perigee_km":208.43670337776,"apogee_km":220.15409272205,"semimajor_km":6592.4323980499,"source":"CELESTRAK","updated_at":"2026-09-12T09:00:33.923057Z"}}